FW9836 Weather Reports


Display with metric or nautical units.
time (UTC)temp
F
wind
direction
speed
MPH
gust
MPH
rain 1hr
in
rain 24hr
in
rain mn
in
humidity
%
barometer
mb
20260505124321 53 236 4.0 11.0 0.00 0.00 0.00 75 1012.1
20260505123420 53 228 4.0 9.0 0.00 0.00 0.00 76 1012.1
20260505121421 52 181 1.0 4.0 0.00 0.00 0.00 77 1012.1
20260505120422 52 235 3.0 9.0 0.00 0.00 0.00 77 1012.1
20260505114521 51 229 3.0 6.0 0.00 0.00 0.00 78 1011.9
20260505113520 50 239 2.0 7.0 0.00 0.00 0.00 79 1011.7
20260505110520 49 228 4.0 8.0 0.00 0.00 0.00 81 1011.8
20260505101523 47 226 3.0 9.0 0.00 0.00 0.00 84 1011.8
20260505100620 47 231 4.0 9.0 0.00 0.00 0.00 84 1011.6
20260505095621 47 226 5.0 10.0 0.00 0.00 0.00 84 1011.4
20260505094621 46 227 2.0 7.0 0.00 0.00 0.00 84 1011.4
20260505093622 47 239 2.0 6.0 0.00 0.00 0.00 84 1011.3
20260505092622 47 237 2.0 6.0 0.00 0.00 0.00 84 1011.2
20260505091621 47 261 0.0 1.0 0.00 0.00 0.00 84 1011.3
20260505090620 47 235 1.0 4.0 0.00 0.00 0.00 84 1011.3
20260505085623 47 228 3.0 7.0 0.00 0.00 0.00 83 1011.2
20260505084721 47 226 5.0 10.0 0.00 0.00 0.00 82 1011.2
20260505083720 47 219 3.0 6.0 0.00 0.00 0.00 83 1011.2
20260505081723 47 268 2.0 8.0 0.00 0.00 0.00 82 1011.0
20260505080821 47 242 3.0 7.0 0.00 0.00 0.00 81 1011.2
20260505074822 47 228 2.0 4.0 0.00 0.00 0.00 81 1011.1
20260505073821 47 238 2.0 7.0 0.00 0.00 0.00 81 1011.1
20260505072919 47 235 2.0 6.0 0.00 0.00 0.00 80 1011.2
20260505071921 47 230 3.0 7.0 0.00 0.00 0.00 80 1011.1
20260505071020 48 219 4.0 8.0 0.00 0.00 0.00 80 1011.2
20260505065020 48 225 2.0 3.0 0.00 0.00 0.00 81 1011.1
20260505064021 48 225 2.0 5.0 0.00 0.00 0.00 80 1011.1
20260505062022 48 226 3.0 7.0 0.00 0.00 0.00 80 1010.9
20260505061020 48 229 4.0 8.0 0.00 0.00 0.00 80 1010.9
20260505060120 48 230 3.0 7.0 0.00 0.00 0.00 80 1010.9
20260505055121 48 221 2.0 5.0 0.00 0.00 0.00 80 1010.8
20260505054120 48 211 2.0 4.0 0.00 0.00 0.00 81 1010.9
20260505053120 47 221 4.0 8.0 0.00 0.00 0.00 81 1010.8
20260505052122 48 228 1.0 4.0 0.00 0.00 0.00 80 1010.7
20260505051220 48 227 3.0 6.0 0.00 0.00 0.00 81 1010.6
20260505040221 47 223 2.0 4.0 0.00 0.00 0.00 81 1010.6
20260505035227 47 225 0.0 2.0 0.00 0.00 0.00 81 1010.5
20260505034326 47 225 1.0 3.0 0.00 0.00 0.00 81 1010.4
20260505033326 46 224 1.0 2.0 0.00 0.00 0.00 81 1010.5
20260505031328 47 225 0.0 0.0 0.00 0.00 0.00 79 1010.6
20260505030425 47 225 0.0 0.0 0.00 0.00 0.00 79 1010.4
20260505025428 47 180 1.0 3.0 0.00 0.00 0.00 78 1010.6
20260505024525 48 225 1.0 4.0 0.00 0.00 0.00 77 1010.8
20260505023525 47 224 2.0 4.0 0.00 0.00 0.00 78 1010.7
20260505022525 48 225 0.0 1.0 0.00 0.00 0.00 77 1010.7
20260505021526 47 204 3.0 5.0 0.00 0.00 0.00 78 1010.5
20260505020524 47 216 1.0 2.0 0.00 0.00 0.00 78 1010.6
20260505015528 48 225 0.0 0.0 0.00 0.00 0.00 79 1010.6
20260505015426 48 225 1.0 2.0 0.00 0.00 0.00 79 1010.6
20260505014525 48 225 1.0 2.0 0.00 0.00 0.00 79 1010.6
20260505013525 48 247 0.0 2.0 0.00 0.00 0.00 78 1010.6
20260505011526 48 225 0.0 1.0 0.00 0.00 0.00 78 1010.4
20260505010526 48 225 0.0 0.0 0.00 0.00 0.00 77 1010.3
20260505004526 49 207 1.0 2.0 0.00 0.00 0.00 76 1010.1
20260505003526 49 231 1.0 4.0 0.00 0.00 0.00 75 1009.9
20260505002525 50 221 5.0 11.0 0.00 0.00 0.00 73 1009.9
20260505001524 50 265 1.0 6.0 0.00 0.00 0.00 72 1009.7
20260505000525 51 234 2.0 6.0 0.00 0.00 0.00 71 1009.4
20260504234624 52 226 1.0 4.0 0.00 0.00 0.00 72 1009.1
20260504233626 53 234 1.0 2.0 0.00 0.00 0.00 70 1008.9
20260504230625 56 247 0.0 2.0 0.00 0.00 0.00 66 1008.6
20260504225627 57 230 1.0 3.0 0.00 0.00 0.00 64 1008.5
20260504224724 57 247 3.0 6.0 0.00 0.00 0.00 63 1008.3
20260504221824 58 270 3.0 7.0 0.00 0.00 0.00 61 1008.4
20260504220828 58 258 1.0 6.0 0.00 0.00 0.00 61 1008.2
20260504215924 58 255 3.0 6.0 0.00 0.00 0.00 61 1007.9
20260504214925 58 253 4.0 8.0 0.00 0.00 0.00 61 1007.9
20260504213928 58 234 1.0 2.0 0.00 0.00 0.00 61 1007.9
20260504212926 58 261 2.0 5.0 0.00 0.00 0.00 62 1007.8
20260504211927 59 260 0.0 3.0 0.00 0.00 0.00 61 1007.8
20260504210927 59 232 1.0 5.0 0.00 0.00 0.00 61 1007.8
20260504205924 59 258 2.0 5.0 0.00 0.00 0.00 61 1007.8
20260504204927 59 215 4.0 8.0 0.00 0.00 0.00 61 1007.8
20260504202124 58 215 3.0 9.0 0.00 0.00 0.00 63 1007.6
20260504201126 57 219 3.0 6.0 0.00 0.01 0.00 64 1007.7
20260504195324 54 225 2.0 5.0 0.00 0.01 0.00 67 1007.7
20260504194328 54 229 5.0 7.0 0.00 0.02 0.00 68 1007.8
20260504193327 53 238 4.0 7.0 0.00 0.02 0.00 69 1007.9
20260504192326 53 229 3.0 6.0 0.00 0.02 0.00 71 1007.9
20260504191327 52 237 2.0 4.0 0.00 0.02 0.00 73 1008.1
20260504190325 52 225 4.0 8.0 0.00 0.03 0.00 74 1008.3
20260504190228 51 203 1.0 4.0 0.00 0.03 0.00 75 1008.3
20260504184324 52 225 3.0 7.0 0.00 0.04 0.00 74 1008.7
20260504183326 52 247 0.0 2.0 0.00 0.05 0.00 73 1008.8
20260504182424 52 274 1.0 3.0 0.00 0.06 0.00 71 1008.7
20260504180426 51 250 1.0 3.0 0.00 0.08 0.00 69 1008.5
20260504175425 50 225 3.0 7.0 0.00 0.09 0.00 70 1008.3
20260504174427 50 233 1.0 4.0 0.00 0.11 0.00 71 1008.3
20260504173524 50 234 2.0 8.0 0.00 0.12 0.00 71 1008.3
20260504172525 50 238 4.0 9.0 0.00 0.13 0.00 70 1008.0
20260504171525 52 235 5.0 10.0 0.00 0.14 0.00 65 1008.1
20260504170625 55 233 2.0 7.0 0.00 0.14 0.00 63 1007.9
20260504150725 53 227 4.0 7.0 0.00 0.30 0.00 56 1009.0